NOAA 16 DEB, 41062

Orbit data source: Space-Track

NOAA 16 DEB, 41062 is space debris in SSO originally from a launch on Thu, 21 Sep 2000 UTC launched from the Air Force Western Test Range (AFWTR). Debris objects in space refer to the collection of defunct objects orbiting the Earth. Examples of debris include non-operational satellites, rocket bodies, and fragments generated from explosions, collisions, or faulty payload assembly.

Loading next visibility...
Identifier
41062, 2000-055V
Orbit
SSO
Country
Flag of USUS
Related business
Manufacturer
Unknown
Mission
Spacecraft
Bus & Motor
Unknown
Mass
Unknown
Launch date (UTC)
Icon of a cake. It is the launch day of the satellite!2000-09-21 (26 years ago)
Launch vehicle
Unknown
Launch site
Air Force Western Test Range (AFWTR)
Object type
Payload
Rocket body
Debris
Shape & HBR
Unknown shape, 0.1 m
Radar Cross Section
Medium (>0.1 m² and <1 m²)

Expand to show TLE details & history
Last TLE update: 16 hours ago

TLE from 16 hours ago
0 NOAA 16 DEB
1 41062U 00055V   26264.02593600  .00001334  00000-0  66085-3 0  9997
2 41062  98.6526 294.0543 0024445 274.5254  85.3130 14.18778117556658
Epoch: 2026-09-21T00:37Z
TLE epoch observation values (Epoch: 2026-09-21T00:37:20.870Z)
Latitude
0.00002°
Longitude
-75.19434°
Altitude
831.005 km
Speed
7.438 km/s
True Right ascension
19h 36m 13s
True Declination
0° 00' 00"
Sunlit
Object was in daylight at epoch
Visualization orbit readout
Latitude
Unknown
Longitude
Unknown
Altitude
Unknown
Speed
Unknown
Apparent Right ascension
Unknown
Apparent Declination
Unknown
Sunlit
N/A
Visualization observer readout
Local Sidereal Time
09:57:39
Azimuth
Unknown
Elevation
Unknown
Doppler factor
Unknown
Orbital elements
Apogee altitude
844.258 km
Perigee altitude
809.033 km
Semi-major axis
7,204.783 km
Eccentricity
0.00244
Inclination
98.6526°
RAAN
294.0543°
Arg. of periapsis
274.5254°
True anomaly
85.59225°
Mean anomaly
85.313°
Eccentric anomaly
85.45262°
Mean motion
3.54905 °/min
Orbital period
101.44 mins
BSTAR
0.00066085
Loading maneuver chart data...
Computing Atmospheric mass density...

Documentation

Showing up to 5 results
|